DELTA 1 DEB, 12246

Orbit data source: Space-Track

DELTA 1 DEB, 12246 is space debris in SSO originally from a launch on Sun, 05 Mar 1978 UTC launched from the Air Force Western Test Range (AFWTR). Debris objects in space refer to the collection of defunct objects orbiting the Earth. Examples of debris include non-operational satellites, rocket bodies, and fragments generated from explosions, collisions, or faulty payload assembly.

Loading next visibility...
Identifier
12246, 1978-026CP
Orbit
SSO
Country
Flag of USUS
Related business
Manufacturer
Unknown
Mission
Spacecraft
Bus & Motor
Unknown
Mass
Unknown
Launch date (UTC)
1978-03-05 (48 years ago)
Launch vehicle
Unknown
Launch site
Air Force Western Test Range (AFWTR)
Object type
Payload
Rocket body
Debris
Shape & HBR
Unknown shape, 0.1 m
Radar Cross Section
Medium (>0.1 m² and <1 m²)

Expand to show TLE details & history
Last TLE update: 2 days ago

TLE from 2 days ago
0 DELTA 1 DEB
1 12246U 78026CP  26171.23244457  .00000325  00000-0  22530-3 0  9991
2 12246  99.0802  58.9310 0054150 324.8050 159.7091 14.05388289318279
Epoch: 2026-06-20T05:34Z
TLE epoch observation values (Epoch: 2026-06-20T05:34:43.210Z)
Latitude
54.34893°
Longitude
-100.39314°
Altitude
920.974 km
Speed
7.378 km/s
True Right ascension
16h 46m 56s
True Declination
54° 11' 22"
Sunlit
Object was in daylight at epoch
Visualization orbit readout
Latitude
Unknown
Longitude
Unknown
Altitude
Unknown
Speed
Unknown
Apparent Right ascension
Unknown
Apparent Declination
Unknown
Sunlit
N/A
Visualization observer readout
Local Sidereal Time
00:39:45
Azimuth
Unknown
Elevation
Unknown
Doppler factor
Unknown
Orbital elements
Apogee altitude
911.654 km
Perigee altitude
833.13 km
Semi-major axis
7,250.529 km
Eccentricity
0.00542
Inclination
99.0802°
RAAN
58.931°
Arg. of periapsis
324.805°
True anomaly
159.92293°
Mean anomaly
159.7091°
Eccentric anomaly
159.81615°
Mean motion
3.51551 °/min
Orbital period
102.4 mins
BSTAR
0.0002253
Loading maneuver chart data...
Computing Atmospheric mass density...
Loading historical data...
Loading historical data...
Loading historical data...
Loading historical data...
Loading historical data...
Loading historical data...
Loading historical data...

Documentation

Showing up to 5 results
|